Stündliche Wetter Abay

Heute, 17 Juni, Donnerstag

Zeit Temperatur Niederschläge Wind Luftdruck Luftfeuchtigkeit
00:00 +19°C° 0 mm 3 m/S 690 mmHg 51%
01:00 +19°C° 0 mm 3 m/S 690 mmHg 51%
02:00 +19°C° 0 mm 3 m/S 690 mmHg 51%
03:00 +19°C° 0 mm 3 m/S 690 mmHg 51%
04:00 +19°C° 0 mm 2 m/S 690 mmHg 51%
05:00 +20°C° 0 mm 2 m/S 690 mmHg 50%
06:00 +21°C° 0 mm 2 m/S 690 mmHg 48%
07:00 +23°C° 0 mm 1 m/S 691 mmHg 46%
08:00 +24°C° 0 mm 1 m/S 691 mmHg 44%
09:00 +25°C° 0.1 mm 1 m/S 691 mmHg 43%
10:00 +26°C° 0.1 mm 1 m/S 691 mmHg 41%
11:00 +27°C° 0.1 mm 1 m/S 691 mmHg 39%
12:00 +28°C° 0.1 mm 1 m/S 690 mmHg 38%
13:00 +28°C° 0.1 mm 1 m/S 690 mmHg 37%
14:00 +29°C° 0.1 mm 2 m/S 690 mmHg 37%
15:00 +29°C° 0 mm 2 m/S 690 mmHg 37%
16:00 +28°C° 0 mm 2 m/S 690 mmHg 37%
17:00 +28°C° 0 mm 2 m/S 690 mmHg 37%
18:00 +27°C° 0 mm 2 m/S 690 mmHg 40%
19:00 +25°C° 0 mm 2 m/S 690 mmHg 43%
20:00 +23°C° 0 mm 2 m/S 690 mmHg 45%
21:00 +23°C° 0 mm 2 m/S 690 mmHg 46%
22:00 +21°C° 0 mm 2 m/S 690 mmHg 47%
23:00 +21°C° 0 mm 2 m/S 690 mmHg 47%

Morgen, 18 Juni, Freitag

Zeit Temperatur Niederschläge Wind Luftdruck Luftfeuchtigkeit
00:00 +20°C° 0 mm 2 m/S 690 mmHg 48%
01:00 +20°C° 0 mm 2 m/S 689 mmHg 48%
02:00 +19°C° 0 mm 3 m/S 689 mmHg 49%
03:00 +19°C° 0 mm 2 m/S 689 mmHg 49%
04:00 +19°C° 0 mm 2 m/S 689 mmHg 49%
05:00 +19°C° 0 mm 2 m/S 689 mmHg 50%
06:00 +21°C° 0 mm 2 m/S 689 mmHg 46%
07:00 +24°C° 0 mm 2 m/S 690 mmHg 43%
08:00 +26°C° 0 mm 1 m/S 690 mmHg 39%
09:00 +27°C° 0.3 mm 1 m/S 690 mmHg 38%
10:00 +28°C° 0.3 mm 1 m/S 690 mmHg 37%
11:00 +29°C° 0.3 mm 1 m/S 690 mmHg 36%
12:00 +29°C° 0.5 mm 2 m/S 689 mmHg 36%
13:00 +29°C° 0.5 mm 2 m/S 689 mmHg 36%
14:00 +30°C° 0.5 mm 2 m/S 689 mmHg 36%
15:00 +28°C° 0.3 mm 2 m/S 689 mmHg 41%
16:00 +26°C° 0.3 mm 2 m/S 689 mmHg 47%
17:00 +25°C° 0.3 mm 2 m/S 690 mmHg 52%
18:00 +24°C° 0.1 mm 3 m/S 690 mmHg 52%
19:00 +22°C° 0.1 mm 3 m/S 690 mmHg 53%
20:00 +22°C° 0.1 mm 4 m/S 690 mmHg 54%
21:00 +21°C° 0 mm 4 m/S 690 mmHg 51%
22:00 +21°C° 0 mm 4 m/S 689 mmHg 48%
23:00 +21°C° 0 mm 4 m/S 689 mmHg 44%

übermorgen, 19 Juni, Samstag

Zeit Temperatur Niederschläge Wind Luftdruck Luftfeuchtigkeit
00:00 +21°C° 0 mm 3 m/S 689 mmHg 42%
01:00 +20°C° 0 mm 3 m/S 689 mmHg 40%
02:00 +20°C° 0 mm 3 m/S 689 mmHg 37%
03:00 +20°C° 0 mm 3 m/S 689 mmHg 37%
04:00 +20°C° 0 mm 3 m/S 689 mmHg 37%
05:00 +20°C° 0 mm 3 m/S 689 mmHg 37%
06:00 +24°C° 0 mm 2 m/S 689 mmHg 34%
07:00 +26°C° 0 mm 2 m/S 689 mmHg 30%
08:00 +29°C° 0 mm 1 m/S 689 mmHg 27%
09:00 +30°C° 0 mm 2 m/S 689 mmHg 26%
10:00 +31°C° 0 mm 3 m/S 689 mmHg 25%
11:00 +33°C° 0 mm 3 m/S 689 mmHg 24%
12:00 +33°C° 0.2 mm 3 m/S 688 mmHg 26%
13:00 +31°C° 0.2 mm 3 m/S 688 mmHg 29%
14:00 +31°C° 0.2 mm 3 m/S 688 mmHg 32%
15:00 +29°C° 0.4 mm 5 m/S 688 mmHg 37%
16:00 +28°C° 0.4 mm 6 m/S 688 mmHg 41%
17:00 +27°C° 0.4 mm 8 m/S 688 mmHg 46%
18:00 +23°C° 2.1 mm 7 m/S 689 mmHg 60%
19:00 +20°C° 2.1 mm 6 m/S 690 mmHg 75%
20:00 +16°C° 2.1 mm 5 m/S 691 mmHg 90%
21:00 +18°C° 1.2 mm 4 m/S 691 mmHg 86%
22:00 +18°C° 1.2 mm 2 m/S 691 mmHg 83%
23:00 +19°C° 1.2 mm 1 m/S 691 mmHg 80%

20 Juni, Sonntag

Zeit Temperatur Niederschläge Wind Luftdruck Luftfeuchtigkeit
00:00 +18°C° 0.1 mm 1 m/S 691 mmHg 77%
01:00 +18°C° 0.1 mm 1 m/S 691 mmHg 75%
02:00 +16°C° 0.1 mm 1 m/S 691 mmHg 72%
03:00 +15°C° 0 mm 1 m/S 691 mmHg 70%
04:00 +15°C° 0 mm 1 m/S 691 mmHg 69%
05:00 +14°C° 0 mm 1 m/S 691 mmHg 67%
06:00 +16°C° 0.1 mm 1 m/S 691 mmHg 65%
07:00 +18°C° 0.1 mm 1 m/S 691 mmHg 62%
08:00 +19°C° 0.1 mm 1 m/S 691 mmHg 59%
09:00 +18°C° 0.3 mm 2 m/S 691 mmHg 60%
10:00 +18°C° 0.3 mm 2 m/S 691 mmHg 60%
11:00 +18°C° 0.3 mm 2 m/S 691 mmHg 60%
12:00 +19°C° 0.1 mm 2 m/S 691 mmHg 59%
13:00 +19°C° 0.1 mm 2 m/S 691 mmHg 58%
14:00 +20°C° 0.1 mm 2 m/S 691 mmHg 58%
15:00 +21°C° 0 mm 2 m/S 691 mmHg 56%
16:00 +21°C° 0 mm 2 m/S 691 mmHg 54%
17:00 +23°C° 0 mm 2 m/S 691 mmHg 53%
18:00 +20°C° 0 mm 2 m/S 691 mmHg 54%
19:00 +19°C° 0 mm 2 m/S 691 mmHg 56%
20:00 +18°C° 0 mm 2 m/S 691 mmHg 57%
21:00 +17°C° 0 mm 2 m/S 691 mmHg 55%
22:00 +17°C° 0 mm 2 m/S 691 mmHg 53%
23:00 +16°C° 0 mm 3 m/S 691 mmHg 51%

21 Juni, Montag

Zeit Temperatur Niederschläge Wind Luftdruck Luftfeuchtigkeit
00:00 +16°C° 0 mm 2 m/S 691 mmHg 50%
01:00 +15°C° 0 mm 2 m/S 691 mmHg 49%
02:00 +15°C° 0 mm 2 m/S 690 mmHg 49%
03:00 +15°C° 0 mm 2 m/S 690 mmHg 49%
04:00 +16°C° 0 mm 2 m/S 690 mmHg 48%
05:00 +16°C° 0 mm 2 m/S 690 mmHg 48%
06:00 +17°C° 0 mm 2 m/S 691 mmHg 44%
07:00 +20°C° 0 mm 1 m/S 691 mmHg 40%
08:00 +22°C° 0 mm 1 m/S 692 mmHg 35%
09:00 +23°C° 0 mm 2 m/S 692 mmHg 34%
10:00 +24°C° 0 mm 2 m/S 692 mmHg 34%
11:00 +25°C° 0 mm 2 m/S 692 mmHg 33%
12:00 +26°C° 0 mm 2 m/S 691 mmHg 33%
13:00 +26°C° 0 mm 2 m/S 691 mmHg 33%
14:00 +27°C° 0 mm 2 m/S 691 mmHg 34%
15:00 +27°C° 0.1 mm 2 m/S 692 mmHg 35%
16:00 +26°C° 0.1 mm 2 m/S 692 mmHg 37%
17:00 +26°C° 0.1 mm 2 m/S 692 mmHg 38%
18:00 +25°C° 0 mm 2 m/S 692 mmHg 42%
19:00 +23°C° 0 mm 2 m/S 692 mmHg 46%
20:00 +20°C° 0 mm 2 m/S 693 mmHg 50%
21:00 +19°C° 0 mm 2 m/S 693 mmHg 52%
22:00 +19°C° 0 mm 2 m/S 692 mmHg 54%
23:00 +18°C° 0 mm 2 m/S 692 mmHg 56%

22 Juni, Dienstag

Zeit Temperatur Niederschläge Wind Luftdruck Luftfeuchtigkeit
00:00 +17°C° 0 mm 2 m/S 692 mmHg 53%
01:00 +17°C° 0 mm 2 m/S 692 mmHg 50%
02:00 +17°C° 0 mm 3 m/S 692 mmHg 48%
03:00 +17°C° 0 mm 2 m/S 692 mmHg 46%
04:00 +17°C° 0 mm 2 m/S 692 mmHg 45%
05:00 +17°C° 0 mm 2 m/S 692 mmHg 44%
06:00 +19°C° 0 mm 2 m/S 693 mmHg 42%
07:00 +21°C° 0 mm 2 m/S 693 mmHg 40%
08:00 +24°C° 0 mm 2 m/S 693 mmHg 39%
09:00 +25°C° 0 mm 2 m/S 693 mmHg 38%
10:00 +26°C° 0 mm 2 m/S 693 mmHg 37%
11:00 +27°C° 0 mm 2 m/S 693 mmHg 36%
12:00 +28°C° 0 mm 2 m/S 693 mmHg 35%
13:00 +29°C° 0 mm 2 m/S 693 mmHg 35%
14:00 +29°C° 0 mm 2 m/S 693 mmHg 35%
15:00 +29°C° 0 mm 2 m/S 693 mmHg 35%
16:00 +29°C° 0 mm 2 m/S 693 mmHg 36%
17:00 +29°C° 0 mm 1 m/S 693 mmHg 37%
18:00 +27°C° 0 mm 2 m/S 692 mmHg 42%
19:00 +25°C° 0 mm 2 m/S 692 mmHg 46%
20:00 +21°C° 0 mm 2 m/S 692 mmHg 50%
21:00 +21°C° 0 mm 2 m/S 692 mmHg 51%
22:00 +20°C° 0 mm 2 m/S 692 mmHg 51%
23:00 +19°C° 0 mm 2 m/S 692 mmHg 51%
Mehr zeigen

Wir brauchen deine Erlaubnis

Meteoprog und unser Service Anbieter werden persönliche Daten aufbewahren, so wie Cookies, Geräte Bezeichnung oder ähnliche Technologien von deinem Gerät und Prozess, so wie Persönliche Daten Inhalte und Werbungen, genauso wie social Media und den Verkehr zu analysieren.

  • Aufbewahrung und/oder Zugang zu deiner Geräte Informationen.

    Cookies, Geräte Bezeichnung oder andere Informationen, können aufbewahrt oder Zugang zu deinem Gerät erhalten, für den Grund, der oben angegeben wird.

  • Personalisierte Werbung und Inhalte, Messungen, Einblick in das Publikum und Produkt Entwicklung.

    Werbungen und Inhalte können personalisiert werden, basierend auf ein Profil. Mehr Daten können besser personalisierte Werbungen und Inhalte hinzufügen. Werbung und Inhalte können gezeigt und gemessen werden. Einblicke über das Publikum, welche die Werbung gesehen haben und den Inhalt, können abgeleitet werden. So wie Daten können genutzt werden, um es zu verbessern oder die Benutzer Erfahrung zu verbessern das System und die Software.

Wenn du “Ich stimme zu” klickst, erlaubst du uns, die Cookies zu benutzen die Geräte Bezeichnung, den Web oder ähnliche Technologien zu benutzen. Deine Settings, können in deinem Gerät bei deinem Browser geändert werden.

Für den bestimmten Zweck, berechtigten Interessen beruhen darauf, mehr als auf den Inhalt. Du kannst mehr darüber in unseren Privaten und Cookie Politik lesen.